Flag for U.S.A. Weather past 2 weeks in Honolulu, Hawaii, U.S.A.

Now
89 °F

Scattered clouds.


Feels Like: 96 °F
Forecast: 73 / 86 °F
Wind: 9 mph from Southeast

Location: Honolulu International Airport

Current Time: Sep 21, 2014 at 12:55:04 PM

Latest Report: Sep 21, 2014 at 11:53 AM


Visibility: 10 mi

Pressure: 29.95 "Hg

Humidity: 57%

Dew point: 72 °F

Location of HonoluluLocation

Historic Weather in Honolulu — Graph

°F

Honolulu temperature yesterday

Maximum temperature yesterday: 88 °F (at 11:53 AM)
Minimum temperature yesterday: 78 °F (at 1:53 AM)
Average temperature yesterday: 83 °F

Past Weeks' High & Low Weather Summary

 TemperatureHumidityPressure
High93 °F (Sep 7, 1:53 PM)97% (Sep 15, 5:53 AM)30.02 "Hg (Sep 15, 5:53 AM)
Low73 °F (Sep 14, 3:53 AM)34% (Sep 7, 12:53 PM)29.87 "Hg (Sep 15, 3:53 PM)
Average82 °F64%29.95 "Hg
* Reported Sep 6 10:53 AM — Sep 21 10:53 AM, Honolulu, Weather by CustomWeather, © 2014

Note: Actual official high and low records may vary slightly from our data, if they occured in-between our weather recording intervals... More about our weather records

Advertising

Honolulu weather history for previous 24 hours

 ConditionsComfort  
Time TempWeatherWind HumidityBarometerVisibility
10:53 AM
Sep 21
88 °FBroken clouds.9 mph59%29.97 "Hg10 mi
9:53 AM89 °FBroken clouds.5 mph55%29.98 "Hg10 mi
8:53 AM85 °FScattered clouds.6 mph63%29.98 "Hg10 mi
7:53 AM82 °FScattered clouds.3 mph70%29.97 "Hg10 mi
6:53 AM78 °FScattered clouds.No wind79%29.96 "Hg10 mi
5:53 AM77 °FPassing clouds.3 mph79%29.94 "Hg10 mi
4:53 AM78 °FPassing clouds.No wind79%29.92 "Hg10 mi
3:53 AM78 °FPassing clouds.3 mph79%29.91 "Hg10 mi
2:53 AM79 °FPassing clouds.No wind77%29.92 "Hg10 mi
1:53 AM79 °FPassing clouds.No wind79%29.93 "Hg10 mi
12:53 AM80 °FPassing clouds.No wind76%29.94 "Hg10 mi
11:53 PM
Sep 20
81 °FPassing clouds.No wind72%29.96 "Hg10 mi
10:53 PM81 °FPassing clouds.3 mph72%29.96 "Hg10 mi
9:53 PM82 °FPassing clouds.5 mph70%29.96 "Hg10 mi
8:53 PM82 °FPassing clouds.3 mph70%29.95 "Hg10 mi
7:53 PM82 °FPassing clouds.5 mph70%29.93 "Hg10 mi
6:53 PM83 °FPartly cloudy.6 mph68%29.92 "Hg10 mi
5:53 PM85 °FBroken clouds.8 mph63%29.89 "Hg10 mi
4:53 PM86 °FBroken clouds.7 mph61%29.88 "Hg10 mi
3:53 PM87 °FLight rain. Broken clouds.9 mph59%29.87 "Hg10 mi
2:53 PM87 °FBroken clouds.13 mph63%29.87 "Hg10 mi
1:53 PM86 °FBroken clouds.13 mph65%29.88 "Hg10 mi
12:53 PM88 °FScattered clouds.14 mph59%29.89 "Hg10 mi
Weather by CustomWeather, © 2014

See weather overviewHow to use our weather pages